STARLINK-1036, 44741

Orbit data source: Space-Track

STARLINK-1036, 44741 is a payload satellite owned by SpaceX/Seattle (US) in LEO that was launched on Mon, 11 Nov 2019 UTC via an FALCON 9 launch vehicle from the Air Force Eastern Test Range (AFETR). Payload-class satellites include a variety of spacecraft equipped with specific instruments for various scientific and technological missions. These include communications satellites like Starlink; space stations such as the ISS; scientific satellites like the Hubble; Earth observation satellites from companies like Planet Labs, Umbra, and HawkEye 360; GPS; miniature CubeSats for education and research; and military/defense satellites.

Loading next visibility...
Identifier
44741, 2019-074AE
Orbit
LEO
Country
Flag of USUS
Related business
Manufacturer
SpaceX/Seattle
Mission
Partially operational Commercial Communications
Bus & Motor
STARLINK, Unknown motor
Mass
260 kg wet, ~248 kg dry
Launch date (UTC)
2019-11-11 (6 years ago)
Launch vehicle
FALCON 9
Launch site
Air Force Eastern Test Range (AFETR)
Object type
Payload
Rocket body
Debris
Shape & HBR
Box + 1 Pan, 10.1 m
Radar Cross Section
13.562 m², Large (>1 m²)

Expand to show TLE details & history
Last TLE update: 15 hours ago

TLE from 15 hours ago
0 STARLINK-1036
1 44741U 19074AE  26118.80488645  .00049972  00000-0  49590-3 0  9993
2 44741  53.0436 304.0183 0003584 168.0757 192.0343 15.65298396356556
Epoch: 2026-04-28T19:19Z
TLE epoch observation values (Epoch: 2026-04-28T19:19:02.189Z)
Latitude
-0.00001°
Longitude
157.48424°
Altitude
375.648 km
Speed
7.684 km/s
True Right ascension
20h 16m 04s
True Declination
0° 00' 00"
Sunlit
Object was in daylight at epoch
Visualization orbit readout
Latitude
Unknown
Longitude
Unknown
Altitude
Unknown
Speed
Unknown
Apparent Right ascension
Unknown
Apparent Declination
Unknown
Sunlit
N/A
Visualization observer readout
Local Sidereal Time
18:17:54
Azimuth
Unknown
Elevation
Unknown
Doppler factor
Unknown
Orbital elements
Apogee altitude
375.08 km
Perigee altitude
370.241 km
Semi-major axis
6,750.797 km
Eccentricity
0.00036
Inclination
53.0436°
RAAN
304.0183°
Arg. of periapsis
168.0757°
True anomaly
192.02574°
Mean anomaly
192.0343°
Eccentric anomaly
192.03002°
Mean motion
3.91301 °/min
Orbital period
92 mins
BSTAR
0.0004959
Loading maneuver chart data...
Computing Atmospheric mass density...

Documentation

Showing up to 5 results
|